Hourly Data Report for October 26, 2015

All times are specified in Local Standard Time (LST). Add 1 hour to adjust for Daylight Saving Time where and when it is observed.

PENTICTON A
BRITISH COLUMBIA

49°27'45.000" N
119°36'08.000" W
344.40 m
1126146
71889
YYF

Download Data

Hourly Data (October 2015)
Hourly Data Report for October 26, 2015
Temp Definition
°C
Dew Point Temp Definition
°C
Rel Hum Definition
%
Wind Dir Definition
10's deg

Wind Spd Definition
km/h
Visibility Definition
km
Stn Press Definition
kPa
Hmdx Definition


Wind Chill Definition


Weather Definition


TIME
00:00 Legend Double Dagger 9.7 4.5 70 31 5 24.1 97.00     Rain
01:00 Legend Double Dagger 8.7 6.0 83 14 9 24.1 97.09     Rain
02:00 Legend Double Dagger 8.7 6.5 86 15 10 24.1 97.14     LegendNANA
03:00 Legend Double Dagger 8.6 6.1 84 20 7 24.1 97.17     Rain
04:00 Legend Double Dagger 6.7 5.8 94 36 1 24.1 97.19     Cloudy
05:00 Legend Double Dagger 6.4 5.7 95 35 3 24.1 97.22     Rain
06:00 Legend Double Dagger 6.7 6.1 96 36 2 24.1 97.25     LegendNANA
07:00 Legend Double Dagger 5.3 4.9 97 36 6 24.1 97.28     Mostly Cloudy
08:00 Legend Double Dagger 7.5 6.5 93 36 6 24.1 97.34     LegendNANA
09:00 Legend Double Dagger 9.7 6.8 82 16 14 24.1 97.31     LegendNANA
10:00 Legend Double Dagger 11.4 7.7 78 15 19 24.1 97.28     Mainly Clear
11:00 Legend Double Dagger 12.2 8.3 77 17 25 24.1 97.31     LegendNANA
12:00 Legend Double Dagger 13.0 8.1 72 17 28 24.1 97.26     LegendNANA
13:00 Legend Double Dagger 12.9 7.4 69 17 28 24.1 97.25     Mostly Cloudy
14:00 Legend Double Dagger 14.1 7.7 65 17 30 24.1 97.26     LegendNANA
15:00 Legend Double Dagger 13.1 7.6 69 17 27 24.1 97.23     LegendNANA
16:00 Legend Double Dagger 12.7 7.4 70 18 27 24.1 97.26     Mostly Cloudy
17:00 Legend Double Dagger 12.3 7.4 72 18 23 24.1 97.28     Rain
18:00 Legend Double Dagger 12.3 7.4 72 18 20 24.1 97.37     LegendNANA
19:00 Legend Double Dagger 10.6 8.9 89 35 18 12.9 97.55     Rain,Fog
20:00 Legend Double Dagger 9.4 8.2 92 4 8 24.1 97.61     LegendNANA
21:00 Legend Double Dagger 9.6 7.7 88 35 5 24.1 97.69     LegendNANA
22:00 Legend Double Dagger 8.4 3.9 73 33 21 24.1 97.78     Mainly Clear
23:00 Legend Double Dagger 7.8 1.4 64 34 14 24.1 97.90     LegendNANA

Notes on Data Quality.

Legend

  • E = Estimated
  • M = Missing
  • NA = Not Available
  • ‡ = Partner data that is not subject to review by the National Climate Archives
Date modified: